Location: Newark
(34.3481°N, 134.0494°E)
Time: 14:44:29
(UTC+00:00)

Vanguard 3 - Pass Details

Date: 05 February 2020
Orbit: 508 x 3263 km, 33.3° (Epoch: 25 February)

Event Time Altitude Azimuth Distance (km) Brightness Sun altitude
Rises 13:55:14 0° 279° (W) 7,083 12.3 -63.9°
Reaches altitude 10° 14:04:01 10° 258° (WSW) 5,647 11.5 -65.3°
Enters shadow 14:08:50 13° 241° (WSW) 5,039 11.1 -66.0°
Maximum altitude 14:10:34 13° 235° (SW) 4,880 - -66.2°
Drops below altitude 10° 14:16:12 10° 210° (SSW) 4,672 - -67.0°
Sets 14:22:03 0° 185° (S) 5,050 - -67.8°
